Temp
21 21 21 21 21 21 22 22 22 22 21 21 22 22 22 22 22 22 22 22 22 22 22 22 22 23 23 23 23 23 23 23 23 24 24 23 23 23 23 23 23 23 23 23 23 23 23 23 23 23 23 23 23 23 23 23 23 22 22 22 22 22 22 22 22 22 22 22 21 21 21 21 21 21 21 21 20 20 21 21 21 21 20 20 20
21 21 21 21 21 21 22 22 22 22 21 21 22 22 22 22 22 22 22 22 22 22 22 23 23 23 23 23 23 23 23 23 24 24 23 23 23 23 23 23 23 23 23 23 23 23 23 22 23 23 23 23 23 23 23 23 23 22 22 22 22 22 21 21 22 22 22 22 22 21 21 21 21 21 21 21 21 21 21 21 21 21 21 20 20
21 21 21 21 21 21 22 22 22 22 21 21 22 22 22 22 22 22 22 22 22 22 22 22 22 23 23 23 23 23 23 23 23 23 23 23 23 23 23 23 23 23 23 23 23 23 23 23 22 22 22 23 23 23 23 23 22 22 22 22 22 21 21 21 21 21 22 22 22 22 21 21 21 21 21 21 21 21 21 21 20 20 20 20 20
20 20 21 21 21 21 22 22 22 22 22 22 22 22 22 22 22 22 22 22 22 22 22 22 22 23 23 23 23 23 23 23 23 23 23 23 23 23 23 23 23 23 23 23 23 23 23 23 22 22 22 22 22 22 22 22 22 22 22 22 22 21 21 21 21 21 21 22 22 22 21 21 21 21 21 21 21 20 20 20 20 20 20 20 20
20 20 21 21 21 21 21 22 22 22 22 22 22 22 22 22 22 22 22 22 22 22 22 22 22 23 23 23 23 23 23 23 23 23 23 23 23 23 23 23 23 23 23 23 23 23 22 22 22 22 22 22 22 22 22 22 22 22 22 22 21 21 21 21 21 21 20 21 22 22 21 21 21 21 21 21 21 21 20 20 20 20 20 20 20
20 20 21 21 21 21 21 22 22 22 22 22 22 22 22 22 22 22 22 22 22 22 22 22 22 22 23 23 23 23 23 23 23 23 23 23 23 23 23 23 23 23 23 23 22 22 22 22 22 22 22 23 23 22 22 22 22 22 22 22 21 21 21 21 21 21 21 21 21 21 21 21 21 21 21 20 21 21 20 20 20 20 20 20 20
20 20 21 21 21 21 21 22 22 22 22 22 22 22 22 22 22 22 22 22 22 22 22 22 22 22 23 23 23 22 23 23 23 23 23 23 23 23 23 23 23 23 23 23 22 22 22 22 22 22 22 23 23 23 23 23 22 22 22 22 21 21 21 21 21 21 21 21 21 21 21 21 21 21 21 20 21 21 20 20 20 20 20 20 20
21 21 21 21 21 21 21 22 22 22 22 22 22 21 22 22 22 22 22 22 22 22 22 22 22 22 22 23 23 23 23 23 23 23 23 23 23 23 23 23 23 23 23 23 23 23 23 23 22 22 22 23 22 23 23 23 22 22 22 22 21 21 21 20 20 21 21 21 20 21 21 21 21 21 21 21 21 21 21 20 20 20 20 20 20
20 21 21 21 21 21 21 22 22 22 22 22 22 21 21 22 22 22 22 22 22 22 22 22 22 22 22 22 22 23 23 23 23 23 23 23 23 23 23 23 23 23 23 23 23 23 23 23 22 22 22 22 22 22 22 22 22 22 22 22 21 21 21 21 21 21 21 21 21 21 21 21 21 21 21 21 21 20 20 20 20 20 20 20 20
20 21 21 21 21 21 21 21 22 22 22 22 22 22 22 22 22 22 22 22 22 22 22 22 22 22 22 22 22 23 23 23 23 23 23 23 23 23 23 23 23 23 23 23 23 23 23 23 23 22 22 22 22 22 22 22 22 22 22 22 22 22 21 21 21 21 21 21 21 21 21 21 21 21 21 20 21 20 20 20 20 20 20 20 20
20 20 20 21 22 21 21 21 21 21 21 21 22 22 22 22 22 22 22 22 22 22 22 22 22 22 22 22 22 23 23 23 23 23 23 23 23 23 23 23 23 23 23 23 23 23 23 23 22 22 21 21 21 22 22 22 22 22 22 22 22 22 22 22 21 21 21 21 21 21 21 21 21 21 20 20 21 21 20 20 20 20 20 20 20
21 21 21 21 22 21 21 21 21 22 22 22 22 22 22 22 22 22 22 22 22 22 22 22 22 23 23 23 22 23 23 23 23 23 23 23 23 23 23 23 23 23 23 23 23 23 23 23 22 22 21 21 21 21 22 22 22 22 22 22 22 21 21 22 22 21 21 21 21 21 21 21 21 21 21 20 21 20 20 20 20 20 20 20 20
21 20 21 21 22 21 21 21 22 22 22 22 22 22 22 22 22 22 22 22 22 22 22 23 23 23 23 23 23 23 23 23 23 23 23 23 23 23 23 23 23 23 23 23 23 23 23 23 23 22 21 21 21 21 21 22 22 22 22 22 22 21 21 21 21 21 21 21 21 21 21 21 21 21 21 20 21 21 20 20 20 20 20 20 20
21 21 21 22 22 22 22 22 22 22 22 22 21 22 22 22 22 22 22 22 23 23 23 23 23 23 23 23 23 23 23 23 23 23 23 23 23 23 23 23 23 23 23 23 23 23 23 23 23 22 21 21 21 22 21 21 22 22 22 22 22 22 21 21 21 21 21 22 22 22 21 21 21 21 21 20 21 21 20 20 20 20 20 20 20
21 21 21 21 22 22 22 22 22 22 22 22 22 22 22 22 22 22 22 22 22 23 23 23 23 23 23 23 23 23 23 23 23 23 23 23 23 23 23 23 23 23 23 23 23 23 23 23 22 21 21 22 22 22 21 21 21 21 22 22 22 22 21 21 21 21 21 21 22 21 21 21 21 21 21 20 21 21 20 20 20 20 20 20 20
21 21 21 21 22 22 22 22 22 22 22 22 22 22 22 22 22 22 22 22 22 22 22 22 23 23 22 22 23 23 23 23 23 23 23 23 23 23 23 23 23 23 23 23 23 23 22 22 22 21 21 22 22 22 22 21 20 21 22 22 22 22 21 21 21 21 21 21 22 21 21 21 21 21 21 21 21 21 20 20 20 20 20 20 20
21 22 22 22 22 22 22 22 22 22 22 22 22 22 22 22 22 22 22 22 22 22 22 22 23 23 23 23 23 23 23 23 23 23 23 23 23 23 23 23 23 23 23 23 23 22 22 22 22 21 21 22 22 22 22 21 21 21 21 22 22 22 21 21 21 21 21 22 22 21 21 21 21 21 21 21 21 21 20 20 20 20 20 20 20
22 22 22 22 22 22 22 22 22 22 22 22 22 22 22 22 22 22 22 22 22 22 22 23 23 23 23 23 23 23 23 23 23 23 23 23 23 23 23 23 23 23 23 23 23 23 23 23 22 21 21 22 22 22 22 22 21 21 22 22 22 22 21 21 21 21 22 22 22 21 21 21 21 21 21 21 21 21 20 21 20 20 20 20 20
22 22 22 22 22 22 22 22 22 22 22 22 22 22 22 22 22 22 22 22 22 23 23 23 23 23 23 23 23 23 23 23 23 23 23 23 23 23 23 23 23 23 23 23 23 23 23 22 21 21 22 22 22 22 22 22 22 21 22 22 22 22 21 21 21 21 22 22 22 22 21 21 21 21 21 21 21 20 20 21 21 20 20 20 20
22 22 22 22 22 22 22 22 22 23 22 22 22 22 22 22 22 22 23 23 23 23 23 23 23 23 23 23 23 23 23 23 23 23 23 23 23 24 23 23 23 23 23 23 23 23 23 22 21 21 22 22 22 22 22 21 21 22 22 22 22 22 22 21 21 21 22 22 22 22 21 21 21 21 21 21 21 20 20 21 21 21 20 20 20
22 22 22 22 22 22 22 22 22 23 23 23 22 22 22 22 22 23 23 23 23 23 23 23 23 23 23 23 22 22 23 23 23 23 23 23 23 23 23 23 23 23 23 23 23 23 23 23 22 21 22 22 22 22 22 21 21 21 22 22 22 22 22 21 21 21 22 21 21 22 22 21 21 21 21 21 21 21 20 20 21 21 20 20 20
22 22 22 22 22 22 23 22 23 23 23 23 22 22 22 22 23 23 23 23 23 23 23 23 23 23 23 23 23 23 23 23 23 23 23 23 23 23 23 23 23 23 23 23 23 23 23 23 23 22 22 22 22 22 22 22 21 21 21 21 22 22 22 22 22 22 21 21 21 21 21 21 21 21 21 21 21 21 21 21 21 21 21 20 20
22 22 22 22 22 22 22 23 23 23 23 23 23 23 23 23 23 23 23 22 22 22 22 23 23 23 23 23 23 23 23 23 23 23 23 23 23 23 23 23 23 23 23 23 23 23 23 23 23 23 23 22 22 22 22 22 22 21 21 21 22 22 22 22 23 22 22 22 21 21 21 21 21 21 21 21 21 21 21 21 21 21 21 21 20
22 22 22 22 22 22 22 22 22 22 23 23 23 23 23 23 22 22 22 22 22 22 22 23 23 23 23 23 23 23 23 23 23 23 23 23 23 23 23 23 23 23 23 23 23 23 23 23 23 23 23 22 22 22 22 22 22 22 22 22 22 22 22 22 22 22 22 22 22 22 22 21 21 21 21 21 21 22 21 21 21 21 21 21 21
22 22 22 22 22 22 22 22 22 22 22 23 23 23 23 22 22 22 22 23 23 22 22 22 23 23 23 23 23 23 23 23 23 23 23 23 23 23 23 23 23 23 23 23 23 23 23 23 23 23 22 22 22 22 22 22 22 22 22 22 22 22 22 22 21 21 22 23 22 22 22 22 22 22 21 21 21 22 21 21 21 21 21 21 21
22 22 22 22 22 21 22 22 22 22 22 23 23 23 23 22 22 22 22 23 22 22 22 22 22 22 23 23 23 23 23 23 23 23 23 23 23 23 23 23 23 23 23 23 23 23 23 23 23 22 22 22 22 22 22 22 22 22 21 21 22 22 21 21 20 20 22 22 22 22 22 22 22 22 22 21 21 21 21 21 22 22 21 21 21
22 22 22 22 22 22 22 22 22 22 22 22 23 23 22 22 22 23 23 23 23 22 22 22 22 23 23 23 23 22 23 23 23 23 23 23 23 23 23 23 23 22 23 23 23 23 22 22 22 22 22 22 22 22 22 22 22 22 22 21 22 21 21 20 20 21 21 22 22 21 22 22 22 22 22 22 21 21 21 22 22 21 21 21 21
22 22 22 22 22 22 21 22 22 22 22 22 22 22 22 22 22 22 23 23 23 22 22 22 22 23 23 23 23 22 22 22 22 23 23 23 23 23 23 23 23 22 23 23 22 22 22 22 22 22 22 21 21 21 21 21 21 22 22 22 21 21 21 20 20 21 21 21 21 21 21 21 21 22 22 22 22 21 22 22 21 21 21 21 21
22 22 22 22 22 22 22 21 21 21 22 22 22 22 22 22 22 22 23 22 22 22 22 22 22 23 22 23 23 23 22 22 22 23 23 23 23 23 23 23 23 23 22 22 22 22 22 22 22 21 21 21 21 21 21 21 21 21 22 22 21 21 21 21 20 21 21 21 21 21 21 21 21 21 21 22 22 22 22 21 21 21 21 21 21
23 23 22 22 22 22 22 22 22 22 22 22 22 22 22 22 22 22 22 22 23 23 22 22 22 22 23 23 23 23 23 23 23 22 23 23 23 23 23 23 23 23 22 22 22 22 22 21 21 21 21 20 20 20 21 20 21 21 22 22 21 21 21 21 20 20 20 20 20 21 21 21 21 21 21 21 21 21 21 21 21 21 21 21 21
23 23 23 22 22 22 23 23 22 22 22 22 22 22 23 22 22 22 22 22 23 22 22 22 22 22 23 23 23 23 23 23 23 22 23 22 23 23 22 23 23 23 22 22 22 22 22 21 21 21 20 20 20 20 21 21 21 21 21 21 21 21 21 21 21 20 20 20 20 20 21 21 21 21 21 21 21 21 21 21 21 21 21 21 21
23 23 23 22 23 23 22 23 23 22 22 22 22 22 22 22 22 22 22 23 22 22 23 22 22 22 23 23 23 23 23 23 23 22 22 22 22 22 22 23 23 23 22 22 22 22 21 21 21 21 20 20 20 20 21 21 20 20 21 20 20 20 20 21 21 20 20 20 20 21 21 21 21 21 21 21 21 21 21 21 21 21 21 21 21
23 23 23 22 23 23 22 23 23 23 22 22 23 22 22 22 22 22 22 23 23 22 23 22 22 22 22 23 23 23 23 23 23 22 22 22 22 22 22 22 23 23 23 22 22 21 21 21 21 20 20 20 20 20 21 20 20 20 20 20 20 20 20 20 20 20 20 20 20 21 21 21 21 21 21 21 21 21 21 21 21 21 21 21 21
23 23 22 22 23 23 22 22 23 23 23 23 23 23 22 22 22 22 23 23 23 23 23 22 22 22 22 22 23 23 23 22 22 22 22 22 22 22 22 22 23 23 22 22 22 21 21 21 20 20 20 20 20 20 20 20 20 20 20 20 20 20 20 20 20 20 20 20 20 20 21 21 21 22 22 22 21 21 21 20 20 20 21 21 21
23 23 23 22 22 23 23 22 22 22 23 23 23 23 23 23 22 23 23 23 23 23 23 22 22 22 22 22 22 22 22 22 22 22 22 22 22 21 21 22 22 22 22 22 21 21 21 20 20 20 20 20 20 20 20 20 20 20 20 20 20 20 20 20 20 20 20 20 20 20 21 21 22 22 22 22 22 22 21 21 20 20 20 20 21
23 23 23 22 22 23 23 23 22 22 22 23 23 23 23 23 23 22 22 22 22 22 22 22 22 22 21 22 22 22 22 22 22 22 22 22 21 21 21 21 22 22 22 21 21 21 20 20 20 21 20 20 20 20 20 20 20 20 20 20 20 20 20 20 20 20 20 20 20 21 21 21 22 22 21 21 21 22 22 21 21 20 20 20 21
23 23 23 23 23 23 23 23 23 23 22 22 23 23 23 23 22 22 22 22 22 22 22 21 21 22 22 22 22 22 22 21 22 22 22 22 21 21 22 22 22 22 21 21 21 20 20 20 20 21 20 20 20 20 20 20 19 19 19 20 20 19 20 20 20 20 20 20 20 21 21 21 21 21 20 20 20 21 21 22 22 21 21 21 20
23 23 23 23 23 23 23 23 23 23 23 23 23 23 23 22 22 22 21 22 22 22 21 22 22 22 22 22 22 22 22 22 22 22 22 22 21 21 22 22 22 22 21 20 20 20 19 19 20 20 19 19 19 20 19 19 19 19 19 19 19 19 20 20 20 20 20 20 20 21 21 21 20 20 20 20 20 20 20 21 21 21 21 21 20
24 23 23 24 24 24 23 23 23 23 23 23 23 22 22 21 21 21 21 22 22 22 22 22 22 23 23 22 22 22 22 22 22 22 22 22 22 21 21 22 21 21 21 20 20 19 19 19 19 19 19 19 19 19 18 18 19 19 19 20 19 19 19 20 20 20 20 20 20 20 21 20 20 20 20 20 20 21 21 20 21 20 20 20 20
24 24 24 24 24 24 24 24 23 23 22 22 22 22 22 22 22 22 22 22 22 22 23 23 23 23 23 23 22 22 22 22 22 21 21 21 21 21 21 21 21 21 21 20 20 19 19 19 20 19 19 19 19 18 19 19 19 20 20 20 20 19 19 20 20 20 20 20 20 20 20 20 20 20 20 20 20 20 20 20 20 20 20 19 20
24 24 24 23 23 24 24 24 23 23 23 23 22 22 22 22 22 22 22 22 22 22 23 23 23 22 23 23 22 22 23 22 21 21 21 21 20 20 21 21 21 22 20 19 19 19 19 20 20 19 19 19 19 19 19 19 20 20 20 21 20 20 20 20 20 20 20 20 20 20 20 20 19 19 20 20 20 20 20 19 19 19 19 19 19
24 24 23 23 23 24 24 24 24 23 23 23 23 22 22 23 22 22 22 22 22 22 22 22 22 22 22 22 22 22 22 22 21 21 21 21 20 21 21 22 22 21 20 19 19 19 19 19 19 19 19 19 19 19 19 19 20 21 21 21 21 20 20 20 20 20 21 21 20 20 20 20 19 20 20 20 20 20 20 20 20 19 19 19 19
24 24 23 23 23 23 24 24 24 24 23 23 23 23 23 23 23 23 23 23 22 22 22 22 22 22 22 22 22 22 22 21 21 21 21 21 21 21 21 22 22 21 20 19 19 19 19 18 18 19 19 19 19 19 19 20 21 21 20 21 21 21 21 21 21 21 21 21 21 20 20 20 20 21 21 19 19 20 20 20 20 20 20 20 20
24 24 24 23 23 23 24 24 24 24 24 24 24 24 24 24 23 23 23 23 22 22 22 22 21 21 22 21 21 22 21 20 20 20 20 21 21 21 22 22 21 21 20 19 19 19 19 19 19 19 19 20 20 20 19 19 20 20 21 21 21 21 22 22 22 21 21 21 21 21 20 20 20 21 21 20 20 20 19 19 20 20 20 20 19
24 24 24 24 24 24 24 25 24 24 24 24 25 24 24 23 23 22 22 22 22 22 22 22 21 21 21 21 21 21 21 20 20 20 21 21 22 22 22 22 21 20 19 19 20 20 20 20 19 19 19 20 20 20 19 19 19 19 20 21 21 21 22 22 22 21 21 21 21 21 20 20 20 20 21 20 20 20 19 19 19 19 19 19 18
25 24 24 24 24 25 25 25 24 24 24 24 25 24 23 23 23 22 23 23 23 22 22 22 22 21 22 21 21 21 22 22 21 21 21 22 22 22 22 21 20 20 20 20 20 20 20 20 19 20 19 19 19 20 20 19 19 19 19 20 20 20 21 21 21 21 21 21 21 21 20 20 19 20 20 20 20 20 19 19 19 18 18 18 18
25 24 24 24 24 25 25 25 24 24 24 24 24 23 22 22 22 23 23 23 23 22 22 22 23 22 22 22 21 21 22 22 22 22 22 22 22 22 21 21 20 20 20 20 20 20 20 20 19 19 19 19 19 19 20 19 19 19 19 19 19 19 19 20 20 21 21 21 21 21 21 20 20 19 19 19 19 19 19 19 19 19 18 18 18
25 24 24 24 24 25 25 25 25 24 24 25 24 23 22 22 22 23 23 23 23 23 23 23 23 23 22 21 21 21 21 22 22 22 22 22 22 21 21 21 21 21 21 20 20 20 20 20 20 19 19 19 19 19 19 19 19 19 19 18 19 19 19 19 19 20 20 21 21 21 21 21 20 20 20 19 19 19 20 20 20 19 19 19 19
25 24 24 24 24 25 25 25 25 24 25 25 24 23 23 22 22 23 23 23 23 23 23 23 23 23 22 21 21 20 21 21 22 22 22 22 21 21 21 21 21 21 20 20 20 20 20 20 20 19 19 19 19 19 19 19 19 20 19 18 19 19 19 19 18 18 19 20 21 21 21 20 20 20 19 19 19 19 19 19 19 19 19 19 19
25 24 24 24 24 24 25 24 24 24 25 25 24 24 23 22 22 23 23 23 23 23 23 23 23 22 21 21 21 21 20 21 22 22 22 21 21 21 21 21 21 20 20 20 20 20 20 20 20 20 20 20 19 19 19 19 19 19 19 18 19 19 19 19 19 19 19 19 20 21 21 21 21 20 20 19 19 19 19 19 19 19 19 19 19
25 24 24 24 24 24 24 24 24 24 24 24 24 23 22 22 22 23 23 23 23 23 22 22 22 22 21 21 21 21 21 20 21 22 21 21 21 21 21 20 20 20 20 20 20 20 20 20 19 19 20 20 19 19 19 19 19 19 19 18 19 19 19 19 19 19 19 20 20 20 21 21 20 20 19 19 19 19 19 19 19 18 18 18 19
Height
815 814 815 815 818 818 820 821 823 824 826 826 826 828 828 830 830 831 832 833 833 834 835 836 837 838 839 840 841 842 843 844 844 845 846 846 846 847 847 847 848 849 849 849 850 850 850 849 850 850 850 850 849 849 849 849 849 848 848 848 849 849 849 850 849 849 849 849 849 849 850 849 849 849 850 850 851 851 851 851 851 852 852 852 852
814 815 815 816 819 819 821 821 824 825 827 828 829 830 830 831 832 833 834 834 835 835 836 837 839 840 841 842 843 843 845 845 846 847 847 848 848 848 849 849 850 850 851 851 852 852 851 851 851 851 851 850 850 850 850 850 850 849 849 849 850 850 850 851 851 851 851 851 850 850 850 850 850 850 850 850 851 851 851 851 852 852 852 852 853
815 816 816 818 820 820 822 823 825 826 828 830 831 832 832 833 834 835 835 836 836 836 838 839 840 841 842 844 845 845 846 847 848 848 849 849 849 850 850 851 852 852 853 853 853 853 853 852 852 852 852 851 851 852 852 852 851 851 851 851 851 851 852 852 853 853 853 852 852 851 851 851 851 851 851 851 852 852 852 852 852 853 853 853 853
816 817 818 819 821 822 823 824 826 827 829 831 832 833 834 835 836 836 837 837 837 838 839 840 842 843 844 845 846 847 848 849 850 850 850 850 851 851 852 853 853 854 854 854 854 854 854 853 854 853 853 853 853 853 853 853 853 853 852 852 852 852 853 853 854 854 855 854 853 853 852 852 852 852 852 852 852 853 853 853 853 853 854 854 854
818 818 819 821 822 823 824 826 828 829 831 832 833 834 836 836 837 838 838 839 839 840 841 842 844 845 846 847 848 849 849 850 851 851 851 852 852 853 854 854 855 855 856 856 856 855 855 855 855 855 854 854 854 854 854 854 854 854 854 854 854 854 853 853 853 854 855 855 854 854 854 854 853 853 853 853 853 853 854 854 854 854 855 855 855
819 819 821 822 823 824 826 828 830 831 832 833 834 835 837 838 838 839 840 840 840 842 843 844 846 847 848 849 850 850 851 851 852 852 853 853 854 854 855 855 856 856 857 857 857 856 856 856 856 856 855 855 855 855 854 854 854 854 854 854 854 854 854 853 852 852 853 855 855 855 855 855 854 854 854 854 854 854 854 855 855 856 856 856 856
819 820 822 823 824 826 827 829 831 832 833 834 835 836 837 839 839 840 841 841 842 843 845 846 847 848 849 850 850 851 852 852 853 853 854 854 855 855 856 856 857 857 858 858 857 857 857 857 857 857 856 856 856 855 855 855 855 855 855 855 855 855 855 854 852 852 852 854 855 855 856 855 856 855 855 855 855 855 855 856 857 857 857 857 857
820 821 823 824 825 827 829 830 832 833 834 836 836 837 839 840 841 841 842 843 844 845 846 847 848 849 850 851 851 852 852 853 854 854 855 855 855 856 856 857 857 858 858 859 858 858 857 858 858 858 857 857 857 856 856 855 855 856 855 855 855 855 855 855 854 853 853 854 855 856 856 856 856 856 856 856 856 856 856 857 857 858 858 858 859
822 822 824 825 826 828 830 831 832 834 835 836 838 839 840 841 842 843 843 844 845 846 847 848 849 850 851 851 852 853 853 854 854 855 855 855 856 856 857 857 858 858 859 859 859 858 858 859 859 859 859 858 858 857 856 856 855 856 855 855 855 855 855 855 855 854 854 854 855 856 856 856 856 857 857 857 857 858 858 858 858 859 859 859 860
822 824 825 826 827 829 831 833 834 836 837 837 839 840 840 841 842 843 844 845 847 847 848 849 850 851 852 852 853 854 854 855 855 855 856 856 856 857 857 858 858 859 859 860 859 859 859 859 860 860 860 860 859 858 857 856 856 855 855 855 855 856 856 856 855 855 854 854 855 855 856 856 857 857 857 858 858 858 859 859 859 860 860 861 861
823 825 826 828 829 830 832 834 835 837 838 838 839 840 841 842 843 844 845 846 848 848 849 850 851 852 852 853 854 854 855 855 856 856 856 856 857 857 858 858 859 859 860 860 860 860 860 860 861 861 861 861 860 859 858 857 856 856 855 855 855 856 856 856 855 855 855 854 855 855 856 856 857 858 858 858 859 859 859 860 860 861 861 862 862
824 826 827 829 830 832 833 834 836 837 838 839 840 840 842 843 844 845 846 848 848 849 850 850 851 852 853 854 854 855 855 856 856 856 857 857 857 858 858 859 859 860 860 861 861 861 860 861 861 862 863 862 861 859 859 858 857 856 856 855 855 855 855 855 855 855 855 855 855 855 856 856 857 857 858 859 859 860 860 860 861 861 862 862 863
826 827 828 830 831 833 834 835 836 837 839 840 841 842 843 844 845 846 847 848 849 849 850 851 852 853 854 854 855 855 856 856 857 857 857 858 858 859 859 860 860 860 861 861 861 861 861 861 862 863 864 863 861 859 859 859 857 857 856 856 855 855 855 855 855 855 855 855 855 855 856 856 856 857 858 859 859 860 860 860 861 862 862 863 864
827 828 830 831 832 834 835 836 837 839 840 841 842 843 844 845 846 847 848 849 849 850 851 852 853 854 854 855 856 856 857 857 858 858 858 859 859 859 860 860 860 861 861 862 862 861 862 862 862 863 864 863 860 858 859 859 857 856 856 856 855 855 855 855 855 855 856 855 855 855 855 856 856 857 858 859 859 860 860 861 862 862 863 863 864
828 829 831 832 833 835 836 837 838 840 841 842 843 844 845 846 847 848 849 850 850 851 852 853 854 855 855 856 856 857 857 858 858 858 859 859 859 860 860 861 861 861 861 861 861 862 862 862 863 863 863 862 859 858 859 859 857 856 856 855 856 855 856 855 855 855 856 856 855 855 855 856 856 857 858 858 859 860 860 861 862 862 863 864 864
830 830 831 833 834 835 837 838 839 841 842 843 844 845 846 847 848 849 850 851 851 852 853 854 854 855 856 856 857 857 858 858 858 859 859 859 859 860 860 861 861 861 861 861 861 862 862 862 863 863 862 860 860 860 859 859 857 856 856 855 856 855 855 855 855 856 856 856 856 855 855 856 856 856 857 858 859 860 860 861 862 862 863 864 865
830 831 832 833 835 836 837 839 840 842 843 844 845 846 847 848 849 850 851 851 852 853 853 854 855 855 856 856 857 857 858 858 858 859 859 859 859 860 860 861 861 861 861 861 861 861 861 862 862 864 862 861 861 860 859 859 857 856 855 855 855 855 855 855 855 856 856 856 856 855 855 856 856 856 857 858 859 859 860 861 861 862 863 864 865
831 833 833 834 835 836 838 839 841 842 843 844 846 847 847 848 850 850 851 852 853 853 854 854 855 855 856 856 857 858 858 858 858 859 859 859 859 860 860 861 861 861 861 861 861 861 861 861 862 864 862 861 861 859 859 858 857 857 856 855 855 855 855 855 855 855 856 856 856 855 855 855 855 856 857 857 858 859 860 861 861 862 863 864 865
833 834 834 835 836 837 838 840 841 842 844 845 846 847 848 849 850 851 852 852 853 853 854 854 855 855 856 857 858 858 858 858 859 859 859 859 859 860 860 860 861 861 861 861 861 860 860 861 862 863 861 860 861 859 859 858 857 857 856 855 855 855 855 855 855 855 855 855 855 855 855 855 855 856 856 857 858 859 860 860 861 862 863 864 865
833 834 835 836 837 839 839 841 842 843 844 845 847 848 849 850 850 851 852 852 852 853 853 854 855 855 856 857 858 858 859 859 859 859 859 860 859 860 860 860 861 860 860 860 860 860 860 861 862 863 861 860 861 859 859 858 857 857 856 856 856 856 855 855 855 854 854 854 855 855 855 855 855 855 856 856 857 858 859 859 860 861 862 863 865
834 835 836 837 838 840 840 842 843 844 845 845 847 848 849 850 850 851 851 852 852 853 853 854 855 855 856 857 857 858 858 859 859 859 860 860 860 860 860 860 860 860 860 860 860 860 860 860 862 863 862 860 860 859 859 858 858 857 857 856 856 856 855 854 854 854 854 854 854 854 854 854 854 855 855 856 856 857 858 859 859 860 861 863 864
834 835 836 837 838 840 840 842 843 844 845 846 847 848 849 849 850 851 851 852 852 853 853 854 855 855 856 857 857 858 858 859 859 859 860 860 860 860 859 859 859 859 859 859 860 860 860 860 861 862 862 861 860 860 859 858 858 857 857 856 856 855 855 854 853 853 853 853 854 853 853 853 854 854 855 855 855 856 857 858 859 859 860 862 863
833 835 836 837 838 839 840 841 842 843 844 846 847 847 848 848 850 850 851 852 852 853 853 854 855 855 856 856 857 858 858 859 859 859 859 859 859 859 859 858 858 858 859 859 859 859 860 860 860 861 861 861 860 859 859 858 857 857 857 856 856 855 855 854 853 853 853 853 853 853 852 853 853 853 854 854 855 855 856 857 858 859 860 861 862
833 834 835 836 837 838 839 841 842 843 844 845 846 847 848 849 850 851 851 852 853 853 854 854 855 855 856 856 857 857 858 858 858 858 858 858 858 858 858 858 858 858 858 858 858 859 859 859 859 860 860 860 860 859 858 858 857 857 856 856 856 855 854 854 853 852 852 852 852 852 852 852 852 852 852 853 853 854 855 856 857 858 859 860 861
832 834 835 836 837 838 839 840 842 843 844 845 846 847 848 849 850 851 852 852 853 853 854 854 855 855 855 856 856 856 857 857 857 857 858 858 858 858 858 858 858 857 858 858 858 858 858 858 859 859 859 859 859 859 858 858 857 857 856 856 855 855 854 854 853 852 851 851 851 851 851 851 851 851 851 852 852 853 854 855 856 857 858 860 861
833 834 834 835 836 837 839 840 842 843 844 845 846 847 848 849 850 850 851 852 853 853 854 854 855 855 855 856 856 856 856 856 857 857 857 857 858 858 858 858 857 857 857 857 857 858 858 858 858 858 858 859 859 858 858 857 857 856 856 855 855 854 853 853 852 852 851 850 850 850 850 850 850 850 850 851 851 852 852 853 854 856 858 859 861
832 833 834 835 836 837 839 840 841 842 844 845 846 847 848 849 849 850 851 851 852 853 853 854 854 855 855 855 855 856 856 856 856 856 857 857 857 857 857 857 857 857 857 857 857 857 857 857 857 857 857 858 858 858 857 857 856 855 855 854 854 853 853 852 851 851 850 849 849 849 849 848 849 849 849 850 850 851 851 852 854 855 857 858 860
831 832 833 834 835 837 838 839 841 842 843 844 846 846 847 848 849 849 850 851 852 852 853 853 854 854 854 855 855 855 856 856 856 856 856 857 857 857 857 857 856 857 856 857 857 857 857 856 856 856 856 857 857 857 856 856 855 855 854 854 853 852 851 851 850 849 849 849 849 848 848 848 848 848 848 849 849 850 850 852 853 855 856 858 859
829 830 832 833 834 836 837 839 840 841 842 844 845 846 846 847 848 849 850 850 851 851 852 853 853 853 854 854 854 855 855 855 855 855 856 856 856 856 856 856 856 856 856 856 856 856 856 856 856 856 856 856 856 856 856 855 855 854 854 853 852 851 850 850 849 848 848 848 848 848 847 847 847 847 847 848 848 849 849 850 852 854 855 856 855
828 829 831 832 833 834 835 837 838 840 842 843 844 845 846 847 847 848 849 849 850 850 851 852 852 852 853 853 853 854 854 854 855 855 855 855 855 856 856 856 856 856 856 856 856 856 855 855 855 855 855 855 855 855 855 854 854 853 853 852 851 851 850 849 848 847 847 847 846 846 846 846 846 846 846 847 847 847 848 849 851 852 853 853 852
827 828 829 830 831 832 834 835 837 839 840 841 842 844 845 845 847 847 848 848 849 850 850 851 851 851 851 852 853 853 853 854 854 854 854 855 855 855 855 855 855 855 856 855 855 855 855 855 854 854 854 854 854 853 853 854 853 853 852 851 851 850 849 848 847 847 846 846 845 845 845 845 845 845 845 845 846 846 847 848 849 851 851 852 851
825 826 827 829 830 831 833 834 835 837 839 840 841 843 844 844 845 846 847 847 848 848 849 850 850 850 851 851 852 852 853 853 853 854 854 854 854 854 854 854 855 855 855 855 855 855 854 854 853 853 853 853 853 852 852 853 853 852 852 851 850 849 849 848 847 846 846 845 845 844 844 844 844 844 844 844 845 845 846 847 848 849 849 850 850
824 825 827 828 829 831 832 833 834 836 837 839 840 841 843 843 844 844 845 846 847 847 848 848 849 849 849 850 850 851 851 852 852 852 852 853 853 853 853 853 854 854 854 854 854 854 853 853 853 852 852 852 852 852 852 852 852 852 851 851 850 849 848 847 847 846 846 845 844 844 843 843 843 843 843 843 844 844 845 846 847 847 848 849 849
823 825 826 827 829 830 831 832 833 834 836 837 838 840 841 842 843 843 844 844 845 846 846 847 847 848 848 848 849 849 850 850 850 850 851 851 851 851 852 852 852 852 853 853 853 853 853 852 852 852 851 851 851 851 851 852 851 851 851 850 849 849 848 847 847 846 845 845 844 843 843 843 842 842 842 842 843 843 844 845 845 846 846 847 848
822 823 824 826 827 828 829 831 832 833 835 836 837 838 839 840 841 842 842 843 844 844 845 846 846 846 847 847 847 848 848 848 848 849 849 849 850 850 850 851 851 852 852 852 852 852 852 852 851 851 851 850 851 851 851 851 851 850 850 849 848 848 847 846 846 845 845 844 843 843 842 842 842 842 842 841 842 842 842 843 844 845 845 846 847
819 821 823 824 826 827 828 830 831 832 833 834 835 836 838 838 840 840 841 841 842 843 844 844 845 845 846 846 846 846 846 846 846 847 847 848 848 849 849 849 850 850 851 851 851 851 851 851 851 850 850 850 850 850 850 850 850 849 849 848 848 847 846 846 845 845 844 843 843 842 842 841 841 841 841 841 841 841 841 842 842 843 844 844 845
818 819 821 823 824 826 827 828 829 831 832 833 834 835 836 837 838 839 839 840 840 841 842 843 843 844 844 844 844 844 844 844 845 845 846 846 847 847 847 848 849 849 849 850 850 850 850 850 850 850 849 849 849 850 849 849 849 848 848 848 847 846 846 845 844 844 844 843 843 842 842 841 840 840 840 840 840 840 841 841 841 842 842 842 843
817 818 820 821 823 824 825 826 828 829 831 832 833 834 835 836 837 837 838 838 838 840 840 841 841 842 842 842 842 843 843 843 844 844 844 845 846 846 846 847 848 848 849 849 849 850 850 850 850 849 849 849 849 849 849 849 848 847 847 847 846 846 845 845 844 844 844 843 843 842 841 840 840 840 839 839 839 840 840 840 840 840 841 841 841
816 817 818 820 821 823 823 825 826 828 829 830 831 832 833 835 835 835 836 836 837 838 838 839 840 840 840 841 841 841 842 842 843 843 843 844 845 845 846 846 847 848 848 849 849 849 849 849 849 848 848 848 848 848 848 848 848 847 847 846 846 846 845 845 844 844 844 844 843 842 842 841 840 840 839 839 839 839 839 839 839 839 840 839 839
814 815 816 818 819 821 822 823 824 826 828 828 830 831 831 832 833 834 834 835 835 836 837 838 839 839 839 839 840 840 841 841 842 842 842 843 844 845 845 846 847 847 848 848 849 849 849 848 848 848 848 848 848 848 848 848 847 846 846 846 845 845 845 845 845 844 844 844 843 843 842 841 841 840 839 839 838 838 838 839 838 838 838 838 837
811 813 814 815 817 818 819 820 822 824 825 826 827 828 829 830 831 832 832 833 834 834 835 836 837 837 838 838 839 839 840 840 841 841 841 842 844 844 845 846 846 847 847 848 848 848 848 847 847 847 847 848 848 847 847 847 847 846 845 845 845 845 845 845 845 845 845 845 844 843 843 842 841 840 840 839 838 838 838 838 838 838 838 837 837
808 810 811 813 815 816 817 818 820 821 822 823 825 826 827 828 829 829 830 832 832 833 834 834 835 836 836 837 837 838 838 839 839 840 841 841 843 844 844 845 846 846 846 847 847 847 847 847 847 847 847 847 847 847 847 846 846 846 846 845 845 846 846 846 846 845 845 845 844 844 843 843 842 841 840 840 839 838 838 837 837 837 837 837 837
806 808 809 811 812 813 815 816 817 819 820 821 822 823 824 826 827 828 829 830 831 832 833 833 834 834 835 836 836 837 837 838 838 839 840 841 842 843 844 844 844 845 845 846 846 847 847 847 847 847 847 847 847 846 846 846 846 846 846 846 846 846 846 846 846 846 846 845 845 844 844 843 842 841 840 840 840 839 838 837 837 837 836 836 836
804 805 807 808 810 811 812 813 815 816 817 818 820 821 823 824 826 827 827 829 829 830 831 831 832 832 833 834 834 835 836 836 837 838 839 839 840 842 842 843 843 844 844 845 846 846 846 846 846 847 847 847 846 846 846 846 846 846 846 846 846 846 847 846 845 846 846 846 845 845 844 844 843 842 841 840 840 839 838 838 837 837 836 836 836
801 802 804 805 806 807 809 811 812 814 815 816 818 820 822 823 824 825 826 827 828 828 829 829 830 830 831 832 832 833 834 835 836 836 837 838 839 840 841 841 842 843 843 844 844 844 845 845 845 845 846 846 846 846 846 845 845 845 845 845 846 847 846 845 845 846 846 845 846 845 845 845 844 842 842 841 840 839 839 838 837 837 837 836 836
797 799 801 802 803 805 806 808 810 811 813 814 816 818 820 821 822 823 824 825 825 826 826 827 827 828 829 830 831 831 833 834 834 835 836 837 837 838 839 840 840 841 841 842 843 843 844 844 844 844 845 845 845 846 846 845 845 845 845 844 845 846 845 845 846 846 845 845 845 845 845 845 844 843 843 842 841 840 840 839 838 837 837 837 836
793 796 798 799 800 802 803 805 807 808 810 812 814 816 817 818 820 820 821 822 822 823 823 824 826 827 828 829 830 830 831 832 833 834 834 835 836 837 838 838 839 839 840 841 841 842 842 843 843 843 844 844 845 845 845 845 845 844 844 844 844 845 845 846 846 845 845 845 845 845 845 845 844 844 843 843 842 841 840 839 839 838 837 837 836
790 792 794 796 797 799 801 802 804 805 807 809 811 813 814 815 817 818 819 819 820 821 822 823 824 825 827 828 828 829 830 830 831 832 833 834 835 836 837 837 838 838 839 839 840 841 841 842 842 842 843 843 844 844 844 844 844 844 844 844 845 845 845 846 846 846 846 845 844 844 845 845 845 844 844 843 843 842 841 840 839 838 838 837 836
786 789 790 793 794 796 798 799 800 802 803 805 807 809 811 812 814 815 816 817 818 820 820 822 823 824 825 826 827 828 828 829 830 831 832 833 834 835 836 836 837 838 838 839 839 840 841 841 842 842 842 843 843 843 844 844 844 844 844 845 845 846 846 846 846 846 846 846 845 843 844 844 844 844 844 843 843 842 841 840 839 839 838 837 837
783 785 787 789 791 793 795 796 797 798 800 802 804 806 808 810 811 811 813 814 816 818 819 820 821 823 824 825 825 826 827 828 828 830 831 832 833 834 835 836 837 837 838 839 839 840 840 841 841 842 842 842 843 843 843 843 843 844 844 845 846 846 846 846 846 846 845 846 845 843 843 843 843 843 843 843 843 842 841 840 839 838 838 837 837
779 782 784 786 788 789 791 793 794 795 797 799 801 803 805 807 808 809 810 812 814 816 817 818 820 821 822 822 823 824 825 826 827 828 830 831 832 833 834 835 836 837 838 838 839 840 840 841 841 841 842 842 842 842 842 843 843 844 844 845 845 845 846 846 845 846 845 845 844 843 842 842 843 842 843 842 842 842 841 840 839 838 837 837 836
Wind_Speed
8 12 15 18 19 19 19 18 21 22 20 19 22 22 21 20 20 21 21 21 21 21 21 21 19 19 19 19 18 17 16 15 14 13 11 11 11 10 10 9 9 9 9 9 9 9 8 9 9 9 9 10 12 12 12 12 12 10 8 6 6 6 6 6 6 5 6 6 7 7 7 7 8 8 7 8 8 7 7 8 8 9 9 10 10
12 15 17 18 19 19 19 18 20 24 21 18 20 21 21 21 20 20 20 20 21 21 20 20 19 19 19 18 18 16 15 14 14 12 11 10 10 9 8 8 8 8 9 9 9 9 9 8 8 8 9 10 11 12 13 12 12 12 9 6 4 5 6 6 5 4 4 5 6 6 6 7 7 7 7 7 7 7 7 7 8 8 8 9 10
14 16 17 17 19 20 19 19 21 24 22 19 19 19 20 21 20 19 19 19 20 20 19 20 20 19 19 18 17 16 15 14 13 11 10 9 9 8 7 8 8 8 8 9 9 8 8 7 7 8 8 9 11 12 13 12 13 12 11 9 5 5 6 6 5 4 4 4 4 4 5 6 6 7 6 7 7 7 7 7 8 8 8 9 9
14 16 17 17 19 19 19 20 22 23 22 20 18 18 19 20 19 18 18 18 20 20 19 20 21 20 18 17 16 15 14 13 11 10 9 8 8 7 6 7 7 8 8 8 8 7 7 6 6 7 8 9 11 12 13 13 13 13 12 11 8 6 6 6 5 4 4 4 3 4 5 5 5 6 6 6 7 7 6 7 8 8 8 8 9
15 15 17 18 19 19 19 19 20 21 21 18 16 17 18 18 18 17 17 18 19 19 20 20 20 19 17 16 14 13 12 11 10 9 8 7 7 6 5 5 6 7 7 7 7 7 6 6 5 6 8 9 10 11 12 13 13 13 13 12 11 8 6 5 3 3 4 4 3 4 4 5 5 4 5 6 6 6 7 7 7 7 8 9 10
14 15 18 18 19 20 19 19 19 19 19 17 16 16 16 17 17 17 16 16 18 18 19 19 18 17 16 15 13 11 10 9 9 9 7 6 6 5 4 4 5 5 6 6 6 6 5 5 6 6 8 9 10 11 11 12 12 12 12 12 11 9 7 5 3 1 2 3 3 3 4 4 5 4 4 5 5 6 7 7 7 7 8 9 10
14 16 19 18 19 19 19 20 20 19 18 17 16 15 16 16 17 16 16 16 17 17 17 17 16 15 14 13 12 10 9 9 8 8 7 6 5 4 4 4 4 5 6 6 5 5 4 5 6 6 7 9 10 10 11 11 12 11 12 12 11 9 8 7 7 3 1 2 2 3 4 4 4 3 3 5 5 5 6 6 6 6 7 9 9
15 16 18 17 18 19 19 20 21 20 19 17 16 15 16 17 16 17 17 17 17 17 16 15 15 13 13 12 11 10 9 8 8 7 6 5 4 4 3 4 4 4 5 5 5 4 4 5 6 6 7 8 10 10 12 12 11 12 12 12 11 10 9 8 9 7 4 2 2 3 3 4 4 3 3 4 5 5 5 6 6 6 7 8 9
15 16 17 16 17 18 18 18 19 21 20 18 16 15 17 18 18 17 17 17 16 16 15 15 14 12 12 12 11 10 9 8 7 7 6 5 4 3 3 3 3 3 3 4 4 4 4 5 6 6 7 9 10 11 11 11 11 11 11 11 11 10 9 8 8 8 6 3 3 3 2 3 4 3 2 3 4 4 5 6 6 6 7 8 9
14 16 17 16 17 18 18 18 18 19 19 17 16 16 18 19 19 17 16 16 15 15 14 13 13 12 11 11 11 10 9 8 7 6 5 5 4 3 2 2 2 2 3 4 4 4 4 5 6 6 7 9 10 10 10 10 10 10 10 10 10 10 9 8 8 8 7 5 4 4 2 2 3 2 2 2 3 3 4 5 6 6 6 8 9
16 17 16 17 18 18 19 18 18 18 17 17 17 17 19 19 19 17 16 15 15 14 13 13 12 12 11 11 10 10 9 8 7 6 5 4 3 3 2 2 1 1 3 3 4 4 4 5 6 7 7 8 9 10 10 9 10 10 9 9 9 9 9 9 9 9 8 6 3 3 3 3 1 2 1 0 2 2 3 4 5 6 6 7 8
16 16 16 17 17 16 17 16 17 17 17 18 18 18 20 19 18 16 15 14 14 13 13 12 11 12 11 10 10 9 9 8 7 6 4 3 2 2 2 1 1 1 2 3 4 5 6 6 6 7 8 8 8 10 10 10 11 11 10 9 8 8 8 8 8 9 9 7 4 2 3 3 1 1 0 1 0 1 2 4 5 6 6 6 7
16 15 15 17 16 16 16 16 17 17 17 18 18 19 19 18 16 15 15 14 13 13 12 11 11 11 10 10 9 9 8 7 6 5 4 3 2 2 2 2 1 1 3 4 5 6 7 8 7 7 8 8 7 9 10 12 12 11 11 9 9 8 7 7 7 7 8 8 6 3 3 2 1 0 0 1 1 1 2 4 6 6 6 7 6
16 15 15 15 16 16 16 17 18 17 17 17 17 18 17 16 16 15 14 13 12 12 11 10 10 10 9 9 9 8 7 6 5 4 3 3 3 2 2 2 2 3 4 5 6 7 8 8 9 8 9 8 8 9 9 11 12 11 10 10 10 9 7 7 6 6 7 8 7 3 2 2 2 1 1 2 2 1 3 4 5 7 6 7 7
16 16 15 15 16 16 17 17 18 17 16 16 16 15 15 15 15 14 13 12 12 11 10 9 9 9 8 8 8 7 6 6 5 4 3 3 3 3 3 2 3 4 5 7 7 7 8 8 9 9 9 9 10 10 9 10 11 11 10 9 9 8 7 8 7 5 5 7 7 5 2 3 3 2 2 3 2 1 3 3 4 7 6 7 7
15 16 16 16 16 16 16 17 17 17 16 16 15 14 14 14 13 13 12 12 11 11 10 9 9 9 8 7 7 6 6 5 5 4 4 4 4 4 3 3 4 6 6 8 8 8 8 8 9 8 9 11 11 11 9 9 10 12 12 11 10 9 7 6 6 5 5 6 7 6 3 2 3 3 3 3 3 2 3 3 4 6 7 7 7
15 16 16 16 16 15 15 15 16 16 15 15 15 14 13 13 12 12 12 12 11 11 10 10 10 9 8 7 7 6 6 5 5 5 5 4 5 4 4 5 5 6 7 9 9 10 10 10 10 9 10 12 11 10 9 9 10 11 13 13 11 10 7 4 3 4 5 5 6 6 3 2 3 3 3 3 3 3 3 3 4 6 8 8 7
15 15 16 16 16 14 14 14 15 14 14 15 14 13 13 13 13 12 12 12 11 11 10 10 9 8 7 7 6 6 5 5 5 5 5 5 6 6 6 6 7 8 9 10 11 12 12 12 11 10 10 11 10 9 8 8 8 8 10 11 11 10 9 6 3 4 5 5 6 6 4 2 3 2 3 4 4 4 4 3 4 5 7 8 7
15 15 15 15 15 15 15 15 15 14 14 14 13 13 12 13 12 12 12 11 11 11 10 9 8 8 7 6 5 5 5 5 5 5 5 5 7 7 7 7 8 10 10 11 12 13 13 13 11 10 10 10 10 9 8 8 8 8 8 9 10 9 9 7 5 4 5 5 4 5 5 3 3 3 2 4 4 5 5 4 4 5 6 8 8
14 14 14 15 15 15 16 16 17 16 16 15 14 13 12 12 12 12 11 11 11 11 10 9 9 8 7 6 6 6 5 6 6 6 6 7 8 8 8 9 10 11 12 12 12 13 14 14 12 10 10 10 9 10 10 9 7 8 9 9 9 9 8 7 6 5 4 4 3 3 4 4 3 4 3 4 5 5 6 5 4 5 7 7 8
14 14 15 16 16 16 16 16 17 16 16 14 14 13 12 12 11 11 11 11 11 11 11 10 10 9 8 8 7 7 6 7 7 7 7 8 9 9 9 10 12 12 12 12 13 13 14 15 12 10 10 11 11 11 10 8 6 6 7 8 9 8 7 7 7 6 5 5 4 2 3 4 3 4 4 5 6 6 7 6 5 6 7 7 8
15 15 15 16 16 16 16 15 16 16 15 14 13 12 12 12 11 11 11 10 11 11 11 11 11 10 9 9 8 8 8 7 7 8 8 9 9 9 10 11 12 13 13 13 13 14 14 13 12 10 9 10 10 9 9 8 7 6 6 6 7 7 7 7 7 7 6 5 5 4 3 3 3 4 5 6 7 8 8 7 7 7 7 8 9
16 16 16 17 16 16 15 15 15 15 15 14 13 13 13 12 11 12 11 11 11 12 12 12 12 11 10 10 9 9 8 8 8 9 9 9 10 11 11 12 13 14 14 14 13 13 13 12 11 10 9 9 9 9 9 9 8 7 6 6 6 6 7 7 8 8 7 6 5 5 4 3 3 3 4 6 8 9 9 9 9 8 8 9 9
18 16 16 17 16 16 16 15 15 15 15 15 14 14 13 12 12 12 11 12 12 12 12 12 12 11 11 10 10 10 9 9 10 10 10 10 11 12 13 12 13 13 13 13 12 12 13 12 10 9 8 8 8 8 9 9 9 8 8 8 7 7 7 7 7 7 8 7 6 5 5 5 4 4 5 7 10 10 10 11 11 10 10 10 10
17 16 16 16 15 16 16 16 15 15 15 15 15 14 14 13 13 13 12 13 13 12 12 12 12 12 12 11 11 11 11 11 11 11 11 12 13 13 12 12 12 13 12 12 11 12 13 12 10 9 8 8 6 6 9 10 10 10 10 10 9 8 8 7 5 4 7 8 6 6 6 5 5 5 6 8 10 11 11 12 12 12 11 11 11
17 17 17 16 16 16 16 17 17 16 16 15 15 14 14 14 14 14 13 13 13 13 12 13 13 13 13 13 13 12 12 12 12 12 12 13 13 13 12 11 11 12 12 11 11 12 12 12 11 10 8 6 4 6 9 11 11 10 9 10 10 9 9 7 5 4 7 8 7 7 7 6 5 5 7 8 10 12 14 15 13 12 12 12 12
19 17 17 16 16 17 16 16 16 16 17 16 16 15 16 16 15 15 14 14 14 14 14 14 14 14 14 13 13 12 12 12 12 13 13 13 13 12 12 11 11 11 12 12 12 12 11 12 12 10 8 6 4 6 9 11 11 10 9 9 9 8 8 6 5 6 7 8 8 7 6 6 6 5 6 8 10 12 16 16 14 13 13 13 12
19 18 18 16 17 17 16 15 15 15 17 17 16 16 17 18 17 16 16 15 14 15 15 15 15 14 14 14 13 13 13 13 13 14 14 13 13 12 12 11 11 12 12 13 13 12 11 12 12 10 8 6 6 8 10 11 12 10 9 8 8 8 7 6 6 7 7 7 7 5 4 4 5 5 5 7 9 11 14 16 16 14 13 13 12
18 19 17 17 19 19 18 17 15 15 17 18 17 18 18 18 19 18 17 16 15 16 15 15 15 15 15 15 15 15 14 14 14 14 14 13 13 12 12 12 12 12 13 14 14 12 11 12 12 10 8 8 7 9 11 12 11 10 9 8 8 8 7 6 6 7 6 5 5 4 3 3 3 4 4 5 7 9 11 14 16 15 13 13 15
18 18 17 18 20 22 22 21 19 16 18 19 18 18 17 18 19 19 18 18 16 16 15 14 15 16 16 16 16 16 15 15 15 14 14 14 13 13 12 12 12 13 13 14 14 13 12 13 12 9 9 8 8 10 12 12 10 9 9 9 8 7 7 6 6 6 6 4 4 4 4 3 3 4 4 5 5 7 9 10 13 15 15 15 17
18 18 19 20 21 24 25 26 23 18 18 20 19 17 16 16 16 18 19 19 18 16 15 14 15 16 17 17 16 16 16 15 15 15 14 14 13 13 13 12 12 13 13 14 15 13 13 13 12 9 9 9 9 11 12 10 8 7 7 8 7 7 7 7 7 6 6 5 5 5 5 4 4 4 4 5 5 7 8 8 10 14 16 17 18
18 20 20 20 22 23 24 27 27 23 21 22 22 18 15 15 15 16 18 18 18 17 15 14 15 15 17 17 16 16 16 16 16 15 15 15 15 15 14 14 13 13 13 14 14 13 13 13 11 9 9 9 9 10 10 7 6 6 6 6 7 7 7 8 7 7 7 6 6 7 6 6 6 6 5 5 4 6 8 9 10 12 14 16 19
17 19 19 20 21 22 22 24 27 27 25 24 24 21 17 15 15 16 18 18 17 16 16 15 15 14 14 17 17 17 16 17 17 17 17 17 17 17 16 15 13 13 13 14 13 13 13 12 10 9 8 7 7 7 7 6 6 6 6 6 7 7 8 8 7 8 7 6 7 7 7 7 7 7 7 6 4 4 6 8 9 11 13 15 18
15 16 18 19 20 20 20 21 23 26 26 25 25 24 21 19 17 16 17 18 17 16 16 16 16 13 12 16 18 18 17 17 17 17 17 17 17 17 17 15 14 13 12 13 13 12 12 10 9 7 6 5 5 5 5 5 6 6 6 7 7 7 7 7 7 7 7 7 6 6 6 6 6 7 8 8 6 4 4 6 7 9 12 14 16
15 17 19 19 21 22 22 19 18 22 24 25 26 25 23 22 18 17 17 17 17 17 16 17 16 14 13 15 17 18 18 17 17 17 17 17 16 14 13 14 13 12 11 12 12 11 10 9 7 6 5 4 4 4 5 5 6 6 7 8 7 7 6 6 6 6 6 6 5 5 5 5 5 6 7 7 7 7 6 5 6 8 10 13 15
18 20 21 20 20 23 25 22 18 19 21 23 25 22 22 22 20 18 16 15 16 16 16 16 15 14 14 15 17 17 18 18 18 18 18 16 13 11 12 13 12 10 11 12 10 9 9 8 6 4 5 5 5 6 5 5 6 7 8 8 7 7 6 6 5 5 4 4 4 4 4 4 3 4 5 5 5 8 8 7 6 6 8 10 12
20 22 23 23 21 22 24 23 21 20 19 19 21 20 20 21 17 15 14 13 14 14 14 15 14 15 16 17 17 16 16 16 17 18 17 14 12 13 14 14 12 10 9 9 9 8 7 6 4 3 5 6 6 6 6 5 5 6 7 8 7 6 5 4 3 3 4 5 5 5 5 4 2 2 2 3 3 5 7 8 8 7 7 8 10
20 22 24 25 25 23 23 23 22 20 19 18 18 18 18 16 14 14 13 13 14 13 13 15 16 18 19 18 16 15 17 16 16 18 19 16 14 15 15 13 12 11 10 8 8 6 5 5 4 3 4 4 5 6 5 5 5 6 6 7 6 5 3 3 3 4 5 5 5 5 6 5 4 3 2 1 2 3 4 6 7 7 8 8 9
20 22 24 26 27 26 25 25 22 19 18 17 16 16 15 15 15 15 14 15 15 15 18 19 19 20 19 18 18 18 18 17 16 17 17 16 15 15 15 12 11 10 9 7 6 5 4 4 4 4 4 4 4 4 5 5 6 6 5 6 5 3 3 4 4 5 5 4 5 5 5 5 5 4 3 2 1 0 2 3 5 6 7 8 10
22 23 26 26 27 27 27 27 23 19 17 16 16 16 16 16 15 15 15 15 14 17 21 21 19 18 17 17 18 17 17 16 15 14 13 14 13 13 12 10 9 9 7 5 4 5 5 5 5 5 5 5 4 4 4 4 6 6 4 5 4 3 5 5 5 6 5 5 5 5 5 5 5 5 4 4 3 2 1 0 2 4 4 6 9
22 24 26 26 27 28 27 28 24 19 18 18 17 18 19 18 17 16 16 15 14 16 18 17 16 15 14 14 14 14 14 14 13 12 12 11 10 11 10 8 8 7 5 4 4 5 5 6 6 5 5 5 4 4 4 4 5 4 4 4 3 5 6 5 5 5 5 5 5 5 5 5 6 5 5 4 3 3 2 2 2 1 1 2 4
22 24 26 27 28 29 29 29 27 22 19 21 19 18 19 18 17 17 16 15 15 15 14 13 13 12 13 13 12 12 13 12 11 11 11 9 9 10 10 9 7 5 4 3 4 3 4 4 4 3 3 3 4 4 3 2 2 3 3 3 3 5 4 4 4 4 5 5 5 6 6 6 6 6 6 6 5 3 3 3 3 2 2 2 2
22 24 25 26 28 30 30 30 30 27 24 24 21 19 19 19 19 19 19 18 16 15 13 12 12 11 12 12 12 13 12 11 11 10 10 9 9 10 11 8 5 4 4 3 3 3 3 3 3 3 2 3 3 3 2 2 1 1 1 1 1 2 3 2 2 3 4 4 5 6 6 6 8 8 8 7 6 5 5 4 3 3 2 2 3
21 22 24 25 27 30 32 32 32 30 30 28 26 25 24 22 21 19 18 17 14 12 12 12 12 11 10 11 11 12 11 10 9 9 9 11 12 12 11 7 6 6 5 4 4 4 4 3 4 3 3 2 2 1 1 1 2 1 0 0 1 1 2 1 2 2 2 3 5 6 7 7 9 11 11 10 9 8 6 5 5 4 4 3 3
21 23 24 26 29 32 33 34 32 32 31 30 29 28 23 20 19 18 16 14 12 11 12 12 11 11 12 12 11 12 11 10 10 11 11 14 15 13 11 9 8 7 5 5 5 5 5 5 4 4 3 3 2 2 2 1 2 2 2 1 1 1 1 1 0 2 2 1 3 5 7 7 10 13 13 12 11 10 9 7 7 6 6 5 5
23 24 26 28 32 34 34 34 33 32 31 31 30 25 19 18 18 18 17 16 15 14 13 14 13 13 13 12 11 12 14 14 14 14 15 16 16 14 13 12 9 6 6 6 6 5 5 5 4 4 4 4 3 3 3 2 2 3 4 3 2 1 0 1 1 1 2 2 2 4 6 7 9 11 12 12 12 11 10 9 9 9 8 8 8
24 25 26 29 33 35 35 35 34 33 31 31 29 22 18 19 19 19 20 19 17 16 16 17 17 16 14 12 10 12 16 17 17 17 18 18 17 15 14 11 8 7 7 7 6 6 5 5 4 4 4 4 4 3 3 2 3 3 4 4 3 1 0 1 2 1 1 2 2 2 4 6 7 8 9 9 9 10 10 10 10 10 11 11 11
25 24 26 28 33 36 36 36 35 34 33 32 30 23 19 19 20 20 22 21 19 18 20 21 19 18 15 12 10 11 15 17 18 19 19 18 17 16 15 11 9 9 9 9 8 7 6 5 4 4 3 4 4 3 3 3 3 4 4 4 3 2 1 0 0 1 1 1 0 1 3 6 5 5 8 8 7 8 8 9 9 10 11 11 13
24 24 27 30 34 36 36 36 35 35 34 33 32 26 21 20 20 22 24 25 24 21 21 21 20 17 13 11 11 11 13 16 19 21 20 19 18 16 15 12 11 10 10 9 9 8 8 7 6 5 4 4 4 3 4 4 4 5 4 4 3 2 2 1 0 0 1 2 2 2 4 6 4 3 5 6 6 6 6 6 7 8 9 10 11
24 26 29 31 33 35 36 37 36 36 35 35 34 30 24 20 22 27 29 27 25 23 20 20 21 16 11 12 13 13 13 14 18 21 20 19 18 16 15 13 12 11 10 10 9 9 9 8 7 6 5 5 4 4 4 4 5 5 5 4 4 3 3 2 2 2 1 1 2 3 5 5 5 5 4 6 7 6 6 5 5 6 6 7 8
23 25 27 28 30 33 36 37 37 36 35 35 34 28 24 22 23 28 32 29 26 26 22 21 21 17 14 14 15 15 14 13 17 21 20 19 18 16 15 14 12 11 11 11 9 9 8 8 7 7 7 6 5 5 4 5 5 6 5 5 5 5 4 3 4 4 3 2 3 4 5 5 6 5 4 7 8 6 7 5 4 5 5 5 6
Wind_Direction
157 149 151 146 143 148 149 149 151 147 139 135 135 137 138 136 132 129 132 134 138 140 143 144 142 140 138 138 138 137 136 138 140 138 135 130 126 120 114 111 106 103 97 91 88 83 80 76 70 63 59 54 55 55 53 50 47 46 46 55 62 64 60 59 67 75 79 78 77 78 81 81 84 85 86 86 85 91 92 97 104 102 105 110 116
156 154 151 148 146 149 150 149 149 148 143 138 135 138 140 139 133 129 132 135 139 141 147 151 149 145 141 140 138 138 138 140 141 140 136 132 128 122 118 114 110 104 98 93 87 80 75 70 64 58 55 51 50 51 51 49 46 44 43 47 59 58 51 54 61 69 74 73 77 82 86 86 89 89 86 88 86 87 88 95 103 103 108 116 124
152 152 150 150 148 149 151 149 146 146 145 141 138 137 138 138 136 132 133 137 140 142 147 152 152 148 145 142 141 140 140 140 138 138 136 133 129 125 122 116 111 103 96 92 85 78 72 65 58 54 51 45 42 43 45 46 42 41 42 42 49 56 49 45 43 43 43 46 64 74 82 84 86 84 83 89 87 84 87 96 103 106 110 118 128
146 147 149 150 148 149 152 151 147 147 148 146 141 140 140 139 139 138 138 140 142 143 145 149 150 148 146 144 142 141 139 138 136 136 135 133 127 123 119 110 108 99 92 91 87 79 70 62 57 50 44 37 34 36 40 41 37 34 37 39 42 48 47 42 36 24 17 23 33 51 74 79 79 77 80 90 87 85 88 96 103 107 111 120 125
141 142 146 149 150 151 154 153 149 149 152 150 145 144 144 144 143 142 141 141 141 143 145 147 149 149 147 145 142 141 138 137 137 136 132 128 123 117 108 101 99 94 91 89 85 77 70 64 58 47 39 33 29 33 37 37 35 33 30 31 35 39 42 37 41 32 18 16 9 32 63 67 76 73 78 94 90 86 92 98 103 104 108 118 123
138 139 145 151 152 153 155 156 154 153 155 155 150 147 147 148 145 141 139 140 141 142 145 147 149 149 148 147 144 141 137 138 137 134 130 124 120 113 102 93 87 88 88 83 78 73 70 63 56 45 33 27 23 27 31 31 31 33 30 25 25 25 29 22 11 15 15 18 356 19 47 51 69 71 78 99 92 89 100 103 106 105 109 118 123
137 140 146 152 154 155 157 160 159 155 156 158 154 150 150 150 146 140 139 139 141 144 146 148 148 148 148 148 146 143 140 140 136 132 130 125 120 118 107 92 84 84 84 80 76 70 64 55 48 43 29 21 18 18 20 21 20 24 26 22 19 13 15 15 3 345 341 26 337 348 35 40 53 68 82 96 94 96 107 109 110 110 114 122 125
140 143 147 150 154 156 158 161 159 155 159 162 158 153 150 150 147 143 143 141 142 144 146 148 148 147 148 149 148 148 147 143 139 138 140 137 133 127 112 97 91 86 85 83 74 62 49 44 39 36 23 15 17 15 14 13 12 15 20 21 17 11 7 10 7 357 344 350 294 313 17 29 40 55 76 92 96 98 111 116 113 112 119 125 127
139 146 149 148 152 156 156 160 158 156 161 165 161 155 150 149 149 148 146 144 145 146 147 148 148 149 149 149 150 153 152 148 147 150 153 149 143 132 117 105 101 99 93 85 72 57 39 33 31 28 18 15 15 15 15 9 8 12 17 20 16 15 10 9 12 6 351 322 277 283 340 9 31 45 60 87 96 97 114 123 118 114 124 130 130
138 145 151 149 152 156 156 158 160 158 158 163 159 154 153 151 152 152 148 148 149 149 148 148 148 149 150 150 152 155 155 154 158 160 159 152 148 142 136 140 137 126 97 81 65 47 26 20 21 21 17 18 13 9 11 2 2 5 10 17 13 15 15 12 17 15 5 341 292 272 289 327 23 46 38 81 91 100 119 129 130 125 128 131 132
140 144 149 152 153 154 155 156 157 155 155 160 158 154 156 155 154 153 150 150 151 150 149 149 150 151 154 154 154 157 158 162 167 167 163 157 157 163 169 182 183 122 78 63 46 22 4 5 12 19 19 21 13 359 356 353 352 353 1 13 10 10 12 12 18 18 12 360 322 275 273 289 351 58 39 91 79 106 134 139 138 133 130 130 133
142 144 148 151 151 149 151 153 153 156 157 159 159 157 158 156 154 153 152 152 151 151 151 153 155 157 159 158 160 163 166 172 176 176 171 170 173 184 196 214 239 48 42 29 17 358 350 355 6 20 21 22 13 348 340 343 346 346 350 360 2 2 5 12 13 12 12 7 348 287 263 276 310 71 183 192 84 120 154 157 150 141 138 138 139
143 145 146 147 149 150 152 154 155 157 156 156 157 157 158 156 154 156 155 154 154 154 155 159 162 164 166 166 169 172 178 182 183 185 183 183 191 205 221 248 285 345 354 358 356 348 349 352 358 10 17 17 358 335 334 336 341 343 341 344 350 349 352 3 8 6 7 12 4 318 262 267 239 197 204 196 223 153 179 181 162 152 149 148 145
144 145 145 146 149 151 151 153 155 156 155 155 156 155 157 158 156 158 157 157 159 159 161 165 169 171 172 175 176 179 184 187 189 191 190 191 207 225 239 265 303 331 337 343 344 346 350 350 353 2 9 0 332 326 333 330 331 333 334 338 340 342 346 350 359 3 2 12 14 350 286 267 238 246 206 209 249 181 196 207 175 164 161 158 154
144 146 145 144 145 147 146 148 153 154 156 156 156 154 157 161 158 159 161 162 163 165 168 172 177 176 173 175 175 181 185 188 192 193 197 203 220 236 250 281 313 322 327 332 336 343 347 346 349 360 355 334 321 326 328 323 326 326 330 336 333 335 340 338 346 3 3 8 15 8 321 276 251 249 212 213 249 222 208 221 194 175 170 168 163
141 144 143 141 143 145 145 149 153 154 156 157 158 157 158 162 160 161 165 166 168 169 173 176 177 176 174 175 175 181 186 190 197 202 211 219 234 244 258 287 303 311 319 323 330 336 342 344 342 356 344 324 327 329 322 317 322 327 328 330 329 330 331 327 336 357 10 7 11 14 349 290 262 244 208 215 237 229 220 224 207 183 176 179 173
144 144 143 143 143 145 146 150 153 152 155 159 160 162 163 167 166 167 169 169 172 174 177 178 178 178 178 180 181 187 191 198 207 214 224 234 246 252 264 281 293 305 316 322 329 332 337 340 338 356 347 330 336 331 325 320 319 328 328 327 330 332 329 321 331 346 1 7 6 9 358 296 263 244 208 214 225 218 226 224 207 189 183 189 185
147 146 145 143 142 142 143 148 151 151 155 160 161 164 167 170 171 170 172 173 176 179 180 182 183 184 184 185 189 195 201 210 219 226 236 244 254 261 269 281 297 310 319 325 328 329 333 335 341 5 352 338 350 346 345 342 336 343 335 331 336 339 334 329 335 332 340 354 360 3 358 310 262 250 217 217 221 213 224 220 203 199 191 193 194
148 147 148 146 145 144 147 151 153 156 160 161 161 165 169 170 172 173 175 177 180 182 184 187 191 193 191 194 198 204 213 222 229 236 244 253 260 264 273 288 303 312 320 326 326 327 332 335 347 11 351 342 2 2 5 4 1 3 352 345 346 345 338 334 335 333 333 339 349 357 353 332 267 248 229 217 220 216 224 221 205 208 203 199 200
154 153 154 153 153 153 156 157 159 163 165 166 164 166 171 172 175 177 180 181 183 185 188 194 197 199 199 205 210 209 215 225 234 240 250 257 260 267 281 295 304 312 319 322 323 328 335 338 352 12 354 350 8 4 4 8 8 4 357 353 350 343 337 339 340 342 340 333 343 353 344 338 285 243 236 219 219 220 226 225 214 212 212 208 202
163 163 163 160 160 163 162 162 164 166 167 169 168 166 171 176 179 181 184 185 188 192 196 200 201 204 207 212 213 212 215 224 235 243 252 258 265 278 289 298 305 311 316 318 321 328 335 338 348 7 354 349 360 359 359 3 4 0 356 351 349 348 344 347 346 347 350 338 338 339 326 325 299 250 236 226 219 219 226 226 222 217 213 212 208
169 170 171 167 167 169 168 168 169 170 170 171 170 169 173 178 181 182 185 189 193 197 199 202 204 206 209 213 215 217 221 228 241 249 257 264 274 284 288 295 303 307 312 316 321 326 331 334 339 351 347 343 349 355 359 358 359 2 4 358 355 355 349 346 343 344 347 340 329 324 318 305 302 274 244 233 226 222 226 227 223 222 217 213 213
175 175 176 175 173 173 173 173 173 175 176 175 175 176 177 181 184 183 185 190 195 197 199 203 204 207 209 214 219 224 229 236 246 253 260 268 275 281 285 293 299 305 312 316 322 325 329 332 336 341 342 343 347 356 3 0 358 357 360 2 359 354 346 339 332 332 333 332 328 321 315 292 285 278 252 237 234 230 228 228 221 221 222 216 214
179 177 178 180 179 178 178 178 178 180 181 182 182 183 182 184 188 188 192 195 198 200 203 207 208 210 213 218 225 231 237 242 247 253 263 271 277 281 285 292 298 306 312 316 322 326 331 333 334 335 337 344 348 358 5 3 359 353 348 346 342 338 333 328 323 323 315 315 323 320 311 292 273 253 246 236 235 234 230 228 223 218 223 222 218
181 181 182 185 185 183 182 182 183 185 188 189 187 190 189 189 195 196 199 201 203 204 207 211 214 217 220 224 230 236 242 246 251 255 264 272 277 281 284 289 297 305 309 314 321 328 334 336 335 331 334 344 349 2 9 5 359 352 346 339 334 329 322 318 318 319 305 305 316 318 311 301 285 251 240 235 235 235 230 230 227 218 217 224 226
184 187 187 188 189 188 187 186 188 189 191 192 191 195 195 195 200 199 201 206 207 209 212 216 219 223 226 231 234 240 246 250 255 257 264 269 274 279 281 287 294 300 305 312 319 327 335 339 340 334 333 341 343 355 2 1 355 350 345 337 332 328 323 318 311 307 300 303 312 314 309 305 296 267 248 242 238 233 231 234 233 225 215 218 227
186 190 189 190 192 192 192 189 190 191 193 195 194 198 200 201 203 202 203 206 209 213 216 220 224 228 232 236 239 244 251 255 259 260 264 267 272 277 281 286 290 296 303 309 314 320 332 341 343 336 331 335 333 338 346 349 347 343 340 334 327 322 322 322 313 304 297 298 307 312 308 304 297 282 264 253 248 241 239 239 237 232 220 215 223
186 190 191 193 194 194 194 193 193 194 194 197 199 202 204 205 206 207 207 209 211 215 219 224 229 234 238 241 244 249 254 258 260 262 265 268 272 276 281 285 289 297 303 307 309 312 326 337 338 334 327 326 332 337 340 342 341 338 334 329 324 320 318 322 317 307 300 294 299 310 306 299 295 289 279 268 263 258 253 246 240 236 229 219 219
186 188 191 196 199 198 196 195 195 196 197 198 203 207 209 210 212 213 213 215 216 219 222 227 234 238 241 242 245 250 254 258 260 264 267 269 272 275 280 286 292 299 303 304 305 307 319 329 331 330 325 321 330 336 338 340 340 337 330 323 321 322 323 328 330 323 316 300 292 296 289 283 289 295 291 278 274 270 266 254 242 236 234 226 221
190 190 193 197 201 203 203 202 199 198 199 201 206 209 211 213 216 218 219 219 219 223 226 228 234 238 240 241 244 250 255 261 264 268 271 272 275 277 282 289 295 299 301 302 301 304 312 321 324 326 326 325 330 332 336 341 342 338 328 324 322 320 321 328 339 342 340 329 304 288 278 273 281 295 295 279 270 269 268 262 249 237 234 231 229
192 193 196 199 203 205 208 209 206 201 202 205 208 208 211 213 216 219 222 224 224 227 229 230 234 237 239 241 245 250 256 262 265 269 272 275 277 279 283 290 295 297 299 301 300 300 304 313 318 322 324 325 328 331 337 343 344 341 330 326 325 321 320 321 331 339 340 338 321 303 292 287 281 280 289 287 278 271 263 258 249 242 238 234 236
195 196 198 201 203 205 208 211 210 208 209 211 212 212 212 216 218 218 221 225 226 229 231 232 234 237 240 240 243 247 253 260 264 267 271 275 276 278 281 286 292 296 298 301 300 298 300 308 315 318 321 324 328 333 342 349 346 344 338 332 330 326 321 318 324 327 329 330 323 315 304 295 287 273 270 277 282 274 262 254 245 241 242 237 239
198 198 199 202 203 205 208 211 213 213 213 213 216 217 215 218 222 222 224 224 226 229 231 233 236 239 241 242 243 245 249 256 260 263 266 270 273 274 276 280 287 291 294 297 299 298 299 306 313 318 321 326 331 337 348 353 349 348 345 341 336 330 326 326 329 328 329 328 322 319 308 297 289 277 267 260 263 265 255 252 247 241 242 239 240
197 197 200 203 203 205 207 211 213 215 216 216 219 221 221 223 224 227 229 228 228 229 231 236 237 239 243 246 248 250 253 257 259 260 260 264 267 268 271 275 279 283 286 289 292 293 295 302 307 314 325 331 335 343 351 352 350 350 346 343 337 332 333 333 332 330 331 328 324 323 315 304 295 287 277 264 257 258 250 246 249 247 246 243 240
200 198 200 203 204 207 210 210 212 214 216 219 222 224 226 227 226 230 232 231 231 230 234 237 239 240 243 249 252 254 258 260 259 257 256 257 259 262 266 269 273 278 280 280 282 284 288 291 295 311 327 331 334 337 343 345 343 344 342 340 335 335 339 335 335 336 334 336 339 338 328 316 302 290 282 272 259 253 251 241 243 245 246 246 243
204 204 204 203 204 210 214 213 214 215 215 220 223 225 228 231 232 234 233 232 233 234 237 240 243 244 246 251 254 256 258 258 257 257 255 253 252 254 259 265 268 269 271 274 275 275 276 275 280 306 317 318 323 324 330 334 333 335 338 340 337 338 343 341 345 352 2 20 24 12 1 343 300 279 273 269 257 247 244 239 235 232 233 240 243
206 209 209 207 206 210 215 216 217 217 217 219 222 225 229 233 232 232 233 235 237 236 238 240 243 246 249 253 255 257 259 256 254 256 254 249 249 254 260 268 267 263 265 269 270 266 264 262 263 285 301 309 315 318 325 326 324 328 335 342 344 346 356 1 8 31 49 56 54 46 38 29 355 308 279 260 254 244 239 236 232 230 229 231 233
207 210 213 214 212 212 213 216 217 218 219 219 221 224 227 229 227 230 234 239 241 237 237 243 249 255 255 256 257 257 258 257 254 256 254 252 255 261 266 267 260 258 264 264 265 263 256 254 253 267 288 299 306 313 321 317 315 322 329 340 348 357 19 29 53 76 71 61 59 58 52 46 38 22 2 289 263 248 241 238 235 235 238 236 231
208 210 215 218 218 216 217 219 219 217 218 219 222 223 223 225 227 232 236 240 243 242 245 252 259 262 259 256 257 257 259 259 256 255 256 255 257 261 262 254 245 251 257 258 263 263 256 252 255 269 284 295 303 308 313 311 310 315 325 341 356 31 62 67 86 91 77 61 61 62 58 55 52 47 49 54 51 220 235 242 242 238 242 240 230
210 213 216 218 218 218 220 222 221 217 216 217 220 220 220 222 226 231 234 237 240 245 252 254 253 255 253 253 254 255 259 260 258 257 258 260 253 247 248 240 234 240 244 251 260 261 261 260 262 271 281 292 302 301 301 308 310 313 328 351 13 89 93 86 96 94 81 65 58 60 61 61 60 59 67 72 69 68 79 233 246 238 243 245 233
211 213 214 216 218 219 220 221 221 216 214 215 216 218 220 220 224 228 230 232 234 243 250 249 243 242 245 248 249 250 256 259 258 257 258 258 242 231 233 226 221 227 232 248 260 262 264 263 264 269 275 284 294 296 297 307 315 322 345 12 63 116 102 87 98 93 83 68 55 60 64 59 58 58 66 72 67 55 40 34 18 334 299 276 250
207 210 211 214 218 219 221 222 222 217 215 217 215 216 218 218 220 225 228 230 234 238 240 241 239 237 238 240 241 243 248 250 249 250 247 239 227 223 219 211 212 222 229 246 259 265 262 255 255 261 268 276 282 284 282 287 315 352 356 12 92 132 120 87 93 93 83 70 57 60 62 60 61 62 63 60 54 44 26 17 17 3 341 330 317
205 207 209 212 216 218 220 222 223 221 220 221 218 219 222 224 228 231 234 235 235 237 238 241 241 236 233 231 236 240 239 238 239 237 228 217 217 212 204 205 219 232 232 241 250 248 241 232 232 243 255 269 277 273 258 252 263 20 354 338 72 157 170 127 96 98 88 71 63 65 67 62 61 64 64 58 52 49 37 20 15 10 346 321 307
204 205 206 209 213 217 220 221 222 223 224 224 225 229 232 234 234 234 237 238 236 237 241 244 239 234 231 228 234 235 230 228 224 216 208 204 203 198 198 213 231 233 229 231 233 229 230 227 230 236 236 243 252 249 233 234 237 222 220 124 33 246 201 147 102 127 120 84 69 69 72 66 62 62 60 56 53 52 47 35 26 22 15 2 341
204 206 205 208 214 219 222 223 222 222 223 225 228 230 230 231 231 230 233 233 230 231 234 235 230 228 229 227 228 228 224 219 212 206 200 196 195 195 204 219 226 227 225 231 235 233 233 226 225 228 225 215 200 223 238 228 234 230 233 238 246 239 195 32 10 177 177 120 73 70 73 64 59 59 56 52 49 49 49 42 40 39 34 30 26
207 208 208 212 218 222 224 224 222 221 222 225 227 224 220 221 222 221 221 222 223 223 222 224 225 228 226 222 222 221 216 211 206 202 197 195 197 202 210 216 221 229 234 240 240 233 226 220 219 218 218 209 188 209 234 231 237 231 231 241 264 280 33 338 290 197 182 168 94 73 70 55 51 52 49 48 45 47 49 45 45 45 42 42 40
208 208 209 213 218 222 224 224 223 222 223 225 224 218 214 218 218 217 218 219 220 222 226 230 234 237 231 221 218 213 208 205 202 200 198 199 204 208 211 215 222 233 237 238 238 233 227 224 221 211 214 211 193 200 216 222 226 227 225 220 223 236 217 279 294 315 227 171 134 83 60 42 39 40 37 39 40 43 48 47 47 46 45 47 47
207 205 207 211 217 220 223 224 224 223 224 226 223 215 213 216 217 218 220 222 223 228 236 238 237 236 230 220 213 208 205 204 203 202 202 204 208 210 211 215 226 234 236 239 244 242 235 235 229 215 213 214 206 200 192 199 214 214 207 196 187 185 184 212 324 333 307 279 92 95 42 18 21 31 28 28 30 35 40 41 42 42 43 44 45
204 204 207 212 217 220 222 223 223 224 225 227 225 220 216 215 216 218 220 225 228 231 235 237 232 225 218 212 209 207 205 205 205 204 205 208 210 211 213 217 225 230 236 241 245 242 237 236 233 230 224 209 202 197 186 191 201 195 182 172 170 170 186 223 261 306 294 309 325 345 349 349 355 9 15 15 15 20 23 28 33 35 35 33 33
203 205 209 213 216 218 220 221 223 224 224 226 225 221 218 216 219 221 222 225 227 228 228 231 228 218 209 210 208 207 205 205 206 205 207 209 210 212 214 215 218 224 234 239 236 235 233 230 228 226 218 202 193 192 191 192 188 183 176 170 176 181 199 230 241 244 245 262 280 308 322 330 332 330 346 355 354 356 354 359 16 22 25 21 19
202 205 207 210 213 216 218 220 222 223 223 224 223 219 216 216 220 223 224 224 226 226 224 223 222 213 207 209 208 207 205 203 205 206 207 209 210 213 211 210 215 222 233 235 229 225 220 214 211 207 202 199 196 191 193 200 194 187 186 189 194 198 214 232 233 228 233 255 272 298 315 322 317 302 306 331 332 335 337 334 340 351 357 360 2